Torna al catalogo

STARLINK-32269

AttivoComunicazioniVLEO
NORAD 60377·PAYLOAD·🇺🇸 United States

Lanciato Aug 4, 2024 da Vandenberg Space Force Base

Loading…

Prossimi Passaggi (prossime 24 ore)

TLE

AggiornatoSource: CelesTrak SupGP

Epoca: Sep 14, 2026, 21:37 UTC

1 60377C 24138Y   26257.90118056 -.00065793  00000+0 -21151-2 0  2573
2 60377  53.1568 149.7034 0001257  92.5182 181.4702 15.31744118    12

Traccia STARLINK-32269 in tempo reale con AllMySat

Download on the App Store